CAPE
984 929 1154 1062 1168 967 1074 1294 1188 1234 1216 910 564 488 442 468 391 248 329 362 680 980 1393 1733 1795 1923 2090 2144 2454 2533 2774 2673 2282 2198 2165 2204 2349 2253 2229 1671 2101 2527 2409
1267 982 1239 1288 1364 1370 1221 1253 1588 1403 1021 583 355 405 452 398 477 321 245 577 784 1079 1241 1529 1855 2089 2325 2453 3018 3520 3681 3425 2773 2577 2778 2502 2257 2135 2202 1677 1815 2399 2273
1610 1375 1360 1586 1512 1760 1848 1738 1785 1387 734 289 287 309 440 697 700 686 624 602 891 1265 1372 1536 1710 2412 2197 2206 2380 2742 3033 2984 2313 2238 2838 2550 2273 2087 2103 1736 1810 2200 2212
1514 1552 1283 1556 1935 1445 1261 1184 1242 992 389 133 159 194 261 379 627 625 661 730 788 937 1551 1952 1646 2041 1970 1852 2072 2121 2153 2081 2437 2142 2692 2478 2266 2158 2311 1791 1838 2151 2099
1317 1454 1404 1726 1843 1280 1083 1203 1293 1790 943 309 184 197 266 302 592 469 840 1164 1039 1104 1488 1519 941 1108 1675 1745 1825 1927 1244 1711 2244 2262 2626 2439 2162 2073 1487 1812 2043 2069 2035
1464 1718 1432 1883 1831 1257 969 1422 2246 1767 2045 1415 557 388 602 695 824 917 947 966 1056 1351 1178 1109 957 876 1297 598 828 801 788 1002 1158 2482 2305 1145 925 1425 1870 2134 2004 1951 1845
1682 2204 1148 1526 1704 1509 1931 1569 1551 1403 1201 1797 1408 829 861 1121 995 1054 1031 822 864 988 940 773 953 848 911 470 512 423 499 684 1660 2441 991 933 1263 1615 1943 2020 1709 1681 1629
2143 1818 1792 1217 1681 1154 1672 1667 1941 1397 1119 1460 1192 801 539 530 1205 707 648 739 798 810 713 853 1141 1121 1693 1159 852 389 658 1034 1474 2151 894 1188 1452 1640 1944 1996 1723 1526 1439
1824 2057 2116 1771 1920 1678 803 1569 1415 1751 835 1113 1678 1008 511 510 576 707 778 529 973 817 1093 1111 1026 843 1682 1616 1012 966 597 900 1507 935 1005 1118 1395 1625 1793 1723 1618 1672 1709
1659 1571 2012 2092 2236 1545 1712 1209 1278 1737 1814 725 907 700 1168 1025 424 283 404 726 1003 703 1164 998 864 982 1300 1657 1068 603 407 985 1203 579 741 1052 1073 1295 1366 1362 1261 1184 1141
1868 1697 2135 2239 2082 1940 1758 1713 2047 1634 1291 1345 844 674 847 712 1040 875 628 506 712 253 324 606 1167 1063 1174 1342 1293 1360 601 349 237 122 271 504 658 667 711 750 753 744 756
1581 2048 1944 2394 2174 1859 1897 1491 2285 2072 2330 1812 1366 1104 767 957 961 1070 891 638 228 214 218 341 683 922 1045 1208 1282 626 639 655 110 103 100 46 82 95 130 159 175 212 286
1216 1589 2258 2386 2044 2297 1968 1546 2215 1956 2109 1929 2016 1193 1028 976 893 686 643 463 420 280 342 189 276 612 960 1248 1660 962 1102 549 248 168 144 89 31 0 16 5 0 0 2
1333 1331 1835 2035 1984 1656 2017 2163 2563 1536 1408 1773 1913 2024 1088 788 838 902 856 748 564 382 242 911 566 861 1043 1534 1061 730 1288 729 124 122 156 119 29 3 10 10 0 0 0
1185 1601 1877 1919 1734 1597 1759 1833 1575 1597 1295 1830 1554 1803 1898 878 743 874 924 1056 1096 696 517 1744 979 1784 957 950 982 1205 1267 18 0 0 1 0 2 0 0 0 0 0 0
1756 1832 1767 1789 1772 1710 1948 1710 1378 1605 1840 1645 1379 1565 1808 1071 959 888 1044 1101 1114 2342 1234 1318 1820 1045 1411 992 564 1061 1140 116 74 0 0 0 0 0 0 0 0 0 0
2144 2363 2170 2154 1901 1845 1926 2110 1679 1607 1527 1967 1984 1879 2055 2231 1758 902 1045 1007 1391 2358 1682 1043 1327 1349 1842 1826 1394 1552 1187 991 177 26 0 0 0 0 0 0 4 4 0
2192 2226 2316 2383 1868 1749 1869 1936 1480 1255 1598 1724 1676 1974 1849 1775 2203 2043 1556 1836 1737 2292 1568 1441 2010 1682 2263 1728 1706 1594 990 469 559 20 0 0 0 0 0 0 3 0 0
2266 1896 1926 2268 2334 1700 2057 1881 1678 1596 1707 1684 1692 1691 1814 1745 2574 2689 2354 2886 2274 1903 2278 1777 1291 731 1245 1846 1266 1305 1349 1151 491 0 0 0 0 0 0 7 4 10 30
2331 2118 1921 1925 2083 2065 1819 1713 1572 1698 1660 1413 1747 1987 1640 1696 1896 1957 1869 1820 2122 2519 1929 1253 912 904 1130 1053 1309 1559 1944 1957 761 361 31 0 0 0 3 8 5 9 45
2122 2222 2431 1959 1920 1805 1534 1731 1388 1552 1668 1701 1677 1819 1710 1340 768 874 1292 1539 1878 1889 770 748 1284 950 1072 1509 1214 806 715 862 512 167 187 120 47 4 0 0 5 8 16
1954 2000 1970 2122 2214 1534 784 508 765 1529 1358 1724 1474 1630 1645 563 270 284 280 224 202 983 1093 965 801 698 705 543 147 38 77 162 387 28 61 86 15 2 0 2 2 9 4
1963 2614 2037 1920 1987 2030 935 642 671 1014 1444 1613 1656 1675 1671 830 798 894 194 30 10 5 2 227 450 331 67 6 1 0 2 5 11 12 5 2 0 0 0 0 0 0 0
2486 2628 2163 2068 2077 1952 1230 965 682 1339 1615 1511 1593 1830 1616 668 444 622 728 516 104 43 34 3 0 3 13 1 0 0 0 0 1 1 0 24 0 0 0 0 0 0 0
2601 2292 1906 2232 2402 2087 1163 1110 768 1561 1888 1217 980 929 573 170 276 189 405 359 44 0 0 0 3 4 10 17 7 6 1 7 4 0 0 0 0 0 0 0 0 0 0
2090 1864 2281 2489 1743 2578 1136 856 513 1475 997 347 197 182 200 143 109 62 88 173 45 0 0 0 2 3 0 0 3 2 1 3 2 10 0 0 0 0 0 6 1 0 0
CIN
-0 -0 -0 -0 -0 -0 -0 -0 -0 -0 -1 -0 -3 -25 -29 -41 -53 -52 -48 -245 -189 -138 -78 -40 -46 -41 -16 -1 -0 -3 -0 -1 -6 -9 -10 -12 -15 -19 -27 -44 -22 -4 -8
-0 -0 -0 -0 -0 -0 -0 -0 -0 -0 -0 -0 -13 -28 -33 -35 -44 -59 -48 -59 -179 -142 -116 -92 -63 -34 -11 -4 -0 -0 -0 -0 -0 -0 -1 -5 -14 -24 -32 -61 -60 -16 -15
-3 -4 -0 -0 -0 -0 -1 -0 -0 -0 -0 -5 -28 -36 -24 -23 -5 -23 -20 -13 -24 -154 -109 -95 -68 -18 -21 -17 -8 -0 -0 -0 -8 -9 -0 -4 -9 -28 -32 -58 -60 -57 -38
-7 -7 -0 -0 -0 -0 -0 -0 -0 -0 -2 -25 -33 -39 -36 -30 -19 -27 -18 -17 -8 -4 -80 -94 -95 -52 -34 -23 -11 -4 -1 -7 -6 -20 -6 -4 -8 -24 -28 -63 -62 -41 -61
-6 -1 -0 -0 -3 -0 -0 -0 -0 -0 -0 -2 -10 -27 -26 -12 -10 -1 -11 -11 -7 -13 -0 -46 -160 -142 -68 -34 -32 -22 -54 -44 -22 -19 -0 -5 -15 -29 -71 -60 -54 -51 -45
-4 -2 -0 -1 -1 -0 -0 -0 -4 -2 -0 -0 -0 -1 -0 -0 -3 -3 -3 -5 -0 -15 -5 -32 -41 -36 -139 -182 -141 -133 -117 -89 -90 -9 -11 -55 -78 -65 -60 -63 -61 -48 -56
-1 -3 -0 -0 -1 -1 -5 -11 -1 -3 -0 -1 -0 -0 -0 -2 -0 -2 -5 -8 -10 -17 -19 -29 -36 -22 -44 -198 -183 -196 -171 -127 -67 -20 -61 -69 -70 -64 -48 -60 -87 -75 -68
-0 -0 -1 -0 -2 -0 -6 -9 -11 -1 -0 -3 -0 -0 -0 -0 -0 -0 -6 -10 -13 -10 -7 -16 -39 -43 -27 -24 -70 -197 -159 -124 -85 -20 -62 -64 -62 -61 -59 -59 -65 -71 -65
-0 -0 -0 -0 -4 -6 -0 -6 -5 -13 -0 -1 -22 -2 -0 -0 -0 -0 -5 -1 -8 -1 -0 -3 -16 -27 -26 -14 -48 -80 -160 -150 -87 -71 -67 -67 -53 -47 -48 -55 -53 -39 -27
-0 -0 -0 -0 -3 -0 -4 -8 -7 -13 -12 -0 -0 -10 -24 -17 -0 -0 -2 -1 -0 -0 -1 -0 -0 -9 -23 -1 -57 -158 -187 -148 -94 -99 -87 -75 -68 -55 -49 -51 -55 -52 -40
-0 -0 -0 -0 -0 -0 -4 -10 -0 -25 -5 -1 -0 -0 -6 -1 -3 -0 -0 -0 -0 -0 -0 -0 -0 -0 -8 -11 -0 -12 -154 -184 -157 -163 -133 -98 -89 -81 -72 -66 -64 -61 -55
-0 -0 -0 -0 -0 -0 -1 -3 -0 -5 -0 -1 -0 -5 -0 -0 -0 -0 -0 -0 -0 -0 -0 -1 -0 -0 -0 -3 -25 -122 -129 -139 -44 -36 -37 -128 -160 -152 -128 -122 -117 -104 -92
-0 -0 -0 -0 -0 -0 -0 -3 -0 -0 -0 -0 -0 -0 -0 -0 -0 -0 -0 -0 -0 -0 -0 -0 -0 -0 -0 -1 -6 -113 -39 -59 -52 -47 -48 -64 -41 -0 -57 -58 -0 -0 -0
-0 -0 -0 -0 -0 -0 -0 -0 -0 -0 -0 -0 -0 -0 -0 -0 -0 -0 -0 -0 -0 -0 -5 -1 -0 -0 -0 -0 -18 -116 -5 -33 -88 -69 -51 -45 -36 -21 -63 -48 -0 -0 -0
-0 -0 -0 -0 -0 -0 -0 -0 -0 -0 -0 -0 -0 -0 -0 -0 -0 -0 -0 -0 -0 -0 -0 -25 -0 -1 -0 -0 -6 -1 -0 -84 -0 -0 -18 -4 -56 -0 -0 -0 -0 -0 -0
-0 -0 -0 -0 -0 -0 -0 -0 -0 -0 -0 -0 -0 -0 -0 -0 -0 -0 -0 -0 -0 -1 -0 -0 -9 -0 -0 -0 -4 -2 -0 -53 -59 -0 -0 -0 -0 -0 -0 -0 -0 -0 -0
-0 -0 -0 -0 -0 -0 -0 -0 -0 -0 -0 -0 -0 -0 -0 -0 -0 -0 -0 -0 -0 -1 -0 -0 -0 -0 -0 -0 -0 -0 -1 -0 -17 -46 -0 -0 -0 -0 -0 -4 -44 -40 -0
-0 -0 -0 -0 -0 -0 -0 -0 -0 -0 -0 -0 -0 -0 -0 -0 -0 -0 -0 -0 -0 -0 -0 -0 -0 -0 -0 -0 -0 -0 -0 -0 -0 -56 -0 -0 -0 -0 -0 -0 -67 -58 -0
-1 -0 -0 -0 -0 -0 -0 -0 -0 -0 -0 -0 -0 -0 -0 -0 -0 -0 -0 -0 -0 -1 -0 -0 -0 -0 -0 -0 -0 -0 -0 -0 -1 -0 -0 -0 -0 -0 -0 -31 -32 -14 -3
-0 -0 -0 -0 -0 -0 -0 -0 -0 -0 -0 -0 -0 -0 -0 -0 -0 -0 -0 -0 -0 -0 -0 -0 -0 -0 -0 -0 -0 -0 -0 -0 -0 -0 -11 -0 -0 -0 -47 -32 -26 -18 -0
-0 -0 -0 -0 -0 -0 -0 -0 -0 -0 -0 -0 -0 -0 -0 -3 -23 -36 -1 -0 -1 -0 -0 -0 -0 -0 -0 -0 -0 -0 -0 -0 -0 -0 -0 -0 -6 -21 -0 -3 -25 -25 -9
-0 -0 -0 -0 -0 -0 -3 -26 -32 -0 -0 -0 -0 -0 -0 -27 -26 -60 -41 -33 -51 -1 -0 -0 -0 -0 -0 -0 -1 -4 -0 -0 -0 -6 -0 -0 -8 -0 -0 -3 -2 -3 -2
-0 -0 -0 -0 -0 -0 -2 -14 -41 -0 -0 -0 -0 -0 -0 -4 -15 -4 -20 -48 -92 -7 -2 -10 -0 -0 -13 -1 -0 -0 -1 -0 -1 -4 -1 -6 -0 -0 -0 -0 -0 -0 -0
-0 -0 -0 -0 -0 -0 -3 -9 -30 -3 -0 -0 -0 -0 -0 -7 -16 -1 -0 -0 -26 -24 -21 -12 -3 -41 -31 -1 -0 -0 -0 -0 -0 -0 -0 -0 -0 -0 -0 -0 -0 -0 -0
-0 -0 -0 -0 -0 -0 -7 -28 -25 -0 -0 -0 -0 -0 -3 -23 -13 -4 -0 -0 -15 -0 -3 -0 -36 -6 -14 -4 -5 -4 -0 -2 -2 -0 -0 -0 -0 -0 -0 -0 -0 -0 -0
-0 -0 -0 -0 -0 -0 -2 -39 -42 -0 -0 -20 -27 -16 -18 -14 -11 -12 -7 -1 -18 -0 -0 -3 -0 -0 -18 -3 -8 -5 -20 -0 -1 -0 -0 -0 -0 -0 -0 -4 -0 -0 -0
Wind_Speed
12 12 13 13 12 11 12 18 18 18 18 19 18 17 19 13 14 16 19 25 25 33 28 25 22 22 22 22 24 22 22 20 17 15 14 17 19 19 17 15 13 10 9
12 14 14 12 11 12 13 18 18 17 18 17 13 14 16 14 15 16 19 24 29 32 31 27 21 24 24 23 23 22 20 18 18 15 14 17 20 21 19 17 15 13 11
13 18 15 15 13 12 14 15 20 16 17 14 10 12 14 12 15 15 19 19 26 34 34 38 31 28 25 25 24 21 17 16 17 17 17 17 20 21 20 19 18 15 13
14 15 14 15 15 15 15 16 18 17 11 10 8 11 9 12 13 17 19 17 19 17 29 32 29 24 28 28 25 23 20 17 16 17 19 17 19 21 20 20 21 20 18
13 16 15 16 17 17 16 20 14 15 9 9 10 10 11 12 17 17 17 19 20 17 12 23 22 24 25 25 24 22 20 20 15 18 17 16 19 19 19 20 21 22 21
12 15 14 19 21 17 14 16 14 10 10 10 14 11 14 11 13 16 17 17 17 19 19 13 17 18 26 22 22 21 21 20 16 18 16 16 18 16 16 16 18 21 22
14 16 17 17 19 18 17 13 10 6 8 7 12 12 12 12 14 12 13 12 14 18 16 14 14 12 15 22 23 19 18 19 18 19 16 19 17 14 12 12 16 19 22
16 17 19 17 18 16 11 10 9 8 7 6 8 9 9 7 8 5 9 9 11 14 13 13 12 15 14 13 13 18 17 17 17 17 17 17 14 13 12 11 13 17 21
16 18 16 17 14 14 11 7 4 6 7 2 4 8 10 6 4 10 11 9 10 10 10 9 13 11 12 13 15 19 19 15 16 17 17 14 12 11 9 9 10 12 17
17 16 15 12 11 12 11 6 2 6 4 5 3 3 4 3 3 6 10 9 12 7 7 9 7 10 10 12 11 9 14 15 18 18 15 12 11 10 9 9 8 8 10
17 17 15 13 10 8 7 6 4 3 3 5 6 1 1 2 5 4 5 2 6 5 5 6 4 5 9 10 11 12 14 16 17 16 14 12 10 8 7 7 7 7 7
20 17 16 13 11 9 5 5 3 4 2 5 6 4 3 4 2 1 2 2 2 3 3 5 5 2 2 6 7 7 11 14 12 11 12 nan nan nan 6 4 3 3 4
21 18 15 14 12 9 9 9 9 6 7 5 7 7 5 2 3 2 2 3 3 4 5 3 6 3 2 5 7 3 13 10 11 10 10 nan nan nan nan nan nan nan nan
21 18 17 16 14 14 12 13 13 7 6 7 5 6 7 5 4 3 2 3 5 5 3 10 4 6 7 8 9 9 15 12 12 14 14 13 nan nan nan nan nan nan nan
25 22 17 16 14 14 14 16 12 11 11 9 6 7 6 5 6 6 5 6 5 4 2 12 6 9 7 8 14 5 9 nan nan nan nan nan nan nan nan nan nan nan nan
22 24 19 14 13 13 13 14 14 11 11 10 9 9 9 5 6 7 10 10 9 9 8 7 11 9 9 7 18 11 16 22 nan nan nan nan nan nan nan nan nan nan nan
17 21 20 17 17 15 13 15 12 15 14 10 10 10 7 6 6 6 11 11 9 11 12 10 12 13 10 12 12 16 17 18 31 nan nan nan nan nan nan nan nan nan nan
13 16 18 18 15 15 14 13 12 12 12 11 10 10 8 9 8 9 11 10 9 13 10 10 11 15 12 14 17 18 21 19 22 nan nan nan nan nan nan nan nan nan nan
15 15 15 17 18 16 16 14 13 12 13 13 12 12 10 9 12 14 13 12 16 17 17 16 13 15 20 17 18 18 22 25 24 nan nan nan nan nan nan nan nan nan nan
15 15 16 16 15 15 15 16 17 16 15 16 15 16 14 12 12 15 18 18 20 20 16 16 17 18 19 22 20 21 25 31 31 29 nan nan nan nan nan nan nan nan nan
19 16 17 16 16 16 18 17 18 19 20 20 18 20 18 20 31 26 22 24 24 26 15 18 21 20 22 22 21 23 24 28 34 36 37 37 nan nan nan nan nan nan nan
21 21 18 17 18 20 22 28 24 24 22 22 21 24 28 36 39 35 35 36 32 23 23 23 27 24 26 25 28 nan nan 32 37 nan nan nan nan nan nan nan nan nan nan
24 26 23 21 22 21 30 31 32 26 26 26 24 26 30 37 34 39 40 nan nan nan nan 29 28 32 nan nan nan nan nan nan nan nan nan nan nan nan nan nan nan nan nan
22 22 21 20 27 26 34 38 37 30 31 30 32 36 35 40 39 37 38 39 40 nan nan nan nan nan nan nan nan nan nan nan nan nan nan nan nan nan nan nan nan nan nan
25 28 27 28 31 31 40 43 43 38 41 42 41 42 45 44 43 39 40 47 nan nan nan nan nan nan nan nan nan nan nan nan nan nan nan nan nan nan nan nan nan nan nan
22 25 26 26 26 27 43 40 41 42 47 46 48 49 53 50 48 nan nan 44 nan nan nan nan nan nan nan nan nan nan nan nan nan nan nan nan nan nan nan nan nan nan nan
Wind_Direction
158 145 150 142 132 109 116 104 103 106 98 90 91 79 67 47 48 38 35 21 33 29 32 39 50 57 59 60 60 65 71 74 71 65 54 50 53 50 41 32 25 21 13
155 155 152 150 144 125 135 122 126 114 102 95 80 85 60 39 27 38 34 18 25 28 36 40 53 65 64 67 68 67 64 64 71 77 78 51 52 50 48 43 35 26 24
160 153 161 151 152 145 136 127 117 103 105 93 84 68 50 47 26 26 32 37 18 32 40 46 59 66 60 58 61 60 61 61 67 72 77 62 49 50 49 48 48 32 31
154 148 149 158 160 142 147 141 138 132 124 102 85 74 58 49 33 33 33 35 43 50 24 37 52 59 58 56 51 51 48 50 60 61 67 50 49 52 54 48 50 47 38
161 150 155 169 151 156 158 142 152 147 130 102 76 69 70 52 33 38 47 40 40 44 50 9 30 48 51 51 51 52 51 47 58 55 55 41 43 45 56 55 51 48 46
163 149 163 162 152 158 158 161 149 156 136 124 107 97 87 69 52 53 56 48 45 56 62 62 59 46 33 44 47 46 48 43 53 52 39 33 36 36 42 50 49 52 51
168 159 156 155 155 157 168 152 137 134 135 137 94 69 65 55 52 45 49 58 65 56 63 63 50 41 29 28 39 39 38 40 44 41 29 31 29 33 46 45 49 47 53
167 160 160 157 166 156 160 156 149 138 126 149 124 98 96 75 10 39 53 49 60 52 51 39 45 48 44 40 18 26 30 37 38 37 28 28 29 30 31 41 52 55 54
169 163 163 159 164 157 155 164 143 150 146 79 116 119 111 128 123 358 29 29 44 41 43 39 30 39 43 41 20 16 25 34 39 34 24 24 29 38 32 32 48 61 65
178 176 170 170 173 175 183 172 142 152 153 138 141 71 114 146 95 82 18 3 42 24 19 55 3 12 37 37 14 10 11 41 35 28 13 17 23 18 20 25 34 52 63
182 190 193 187 193 193 232 216 209 161 237 168 181 221 217 59 4 59 89 59 49 345 357 23 14 7 25 53 56 348 10 36 33 22 5 1 6 16 15 15 28 43 60
197 195 203 199 207 209 216 188 236 300 213 222 211 217 204 163 168 264 43 27 49 37 284 38 4 23 33 47 17 29 17 25 27 20 360 nan nan nan 347 355 7 44 69
204 210 208 209 211 216 226 244 273 269 270 235 242 211 215 192 208 237 323 353 345 348 344 353 307 344 349 6 324 33 344 354 359 358 347 nan nan nan nan nan nan nan nan
213 210 222 214 216 213 222 240 247 238 255 249 249 223 201 217 238 270 292 303 328 337 354 305 296 305 324 307 310 13 324 307 322 323 318 316 nan nan nan nan nan nan nan
203 211 216 218 220 219 215 224 225 239 224 252 249 257 238 232 253 278 301 305 299 339 359 289 289 312 322 336 305 335 308 nan nan nan nan nan nan nan nan nan nan nan nan
205 203 214 223 233 232 226 230 218 238 235 235 244 244 246 242 269 303 284 319 331 273 301 299 299 285 286 292 308 308 293 323 nan nan nan nan nan nan nan nan nan nan nan
220 213 214 224 230 236 234 235 236 212 236 231 229 224 246 257 252 266 299 295 292 296 312 307 282 267 287 297 295 299 315 310 306 nan nan nan nan nan nan nan nan nan nan
233 229 229 234 238 251 244 245 247 245 255 238 225 231 226 254 277 278 282 281 281 287 292 286 292 279 289 301 298 298 301 298 297 nan nan nan nan nan nan nan nan nan nan
246 231 234 240 252 247 246 249 256 251 251 251 256 248 241 237 251 264 281 284 282 268 279 289 272 275 269 276 276 300 292 286 298 nan nan nan nan nan nan nan nan nan nan
240 241 240 240 239 250 257 262 264 263 259 260 255 253 250 253 264 276 289 284 282 271 263 273 267 274 285 276 282 289 285 287 284 286 nan nan nan nan nan nan nan nan nan
242 232 231 234 246 250 255 266 263 264 266 260 253 262 266 261 258 265 276 282 286 302 280 277 272 269 271 278 283 285 289 288 286 284 286 288 nan nan nan nan nan nan nan
248 244 245 246 247 250 257 265 258 262 265 263 259 261 270 276 271 272 270 267 268 277 284 275 263 277 279 281 286 nan nan 283 291 nan nan nan nan nan nan nan nan nan nan
238 246 246 251 253 249 259 266 271 263 263 262 261 266 273 271 275 279 276 nan nan nan nan 268 263 275 nan nan nan nan nan nan nan nan nan nan nan nan nan nan nan nan nan
254 244 237 254 252 250 265 272 271 268 269 270 271 275 275 273 271 275 281 280 277 nan nan nan nan nan nan nan nan nan nan nan nan nan nan nan nan nan nan nan nan nan nan
251 246 252 258 249 255 261 267 270 265 267 271 271 272 273 272 267 264 277 276 nan nan nan nan nan nan nan nan nan nan nan nan nan nan nan nan nan nan nan nan nan nan nan
252 255 252 248 253 258 269 269 269 262 271 269 268 268 258 269 268 nan nan 275 nan nan nan nan nan nan nan nan nan nan nan nan nan nan nan nan nan nan nan nan nan nan nan